Location: *
(46.0770°N, 1.6444°E)
Time: 03:36:02
(UTC+00:00)

ATLAS 2AS CENTAUR R/B - Pass Details

Date: 16 September 2019
Orbit: 919 x 1292 km, 63.6° (Epoch: 21 September)

Event Time Altitude Azimuth Distance (km) Brightness Sun altitude
Rises 20:10:27 0° 319° (NW) 4,198 7.0 -21.8°
Reaches altitude 10° 20:13:24 10° 315° (NW) 3,188 6.2 -22.2°
Maximum altitude 20:20:43 51° 242° (WSW) 1,420 3.5 -23.3°
Enters shadow 20:24:52 24° 178° (S) 2,109 3.9 -24.0°
